Regional Weather Roundup
Issued by NWS Sioux Falls, SD

Home | Current Version | Previous Version | Text Only | Print | Product List | Glossary Off
Versions: 1 2 3 4 5 6 7 8 9 10 11 12 13 14 15 16 17 18 19 20 21 22 23 24 25 26 27 28 29 30 31 32 33 34 35 36 37 38 39 40 41 42 43 44 45 46 47 48 49 50

000
ASUS43 KFSD 181210
RWRFSD

WEATHER ROUNDUP FOR SE SOUTH DAKOTA/SW MINNESOTA/NW IOWA
NATIONAL WEATHER SERVICE SIOUX FALLS SD
600 AM CST SAT NOV 18 2017

NOTE: "FAIR" INDICATES FEW OR NO CLOUDS BELOW 12,000 FEET WITH NO
SIGNIFICANT WEATHER AND OR OBSTRUCTIONS TO VISIBILITY.


SDZ038>040-050-052>070-181300-
SOUTHEAST SOUTH DAKOTA

CITY           SKY/WX    TMP DP  RH WIND       PRES   REMARKS
BROOKINGS      CLEAR     26  21  81 NW8       29.84R WCI  18
CHAMBERLAIN    CLEAR     36  35  96 W8        29.93R
6HR MIN TEMP:  35; 6HR MAX TEMP:  40;

HURON          CLEAR     22  18  85 N5        29.91R WCI  16
6HR MIN TEMP:  22; 6HR MAX TEMP:  33;

MADISON        FAIR      27  27 100 NW10      29.84R WCI  17
MITCHELL       PTCLDY    28  21  75 NW7       29.91R WCI  21
6HR MIN TEMP:  27; 6HR MAX TEMP:  36;

SIOUX FALLS    CLOUDY    33  25  72 N9        29.85R WCI  25
6HR MIN TEMP:  33; 6HR MAX TEMP:  37;

WINNER         FAIR      36  31  82 NW12G21   29.96R
YANKTON        CLOUDY    33  24  69 NW13      29.88R WCI  24
$$

MNZ071-072-080-081-089-090-097-098-181300-
SOUTHWEST MINNESOTA

CITY           SKY/WX    TMP DP  RH WIND       PRES   REMARKS
FAIRMONT       CLOUDY    30  27  88 NW17G24   29.77R WCI  18
JACKSON        CLOUDY    28  25  86 NW13G18   29.77R WCI  18
LUVERNE        CLOUDY    30  23  74 N7        29.84R WCI  23
MARSHALL       MOCLDY    25  19  78 NW17      29.85R WCI  12
6HR MIN TEMP:  25; 6HR MAX TEMP:  31;

MONTEVIDEO     PTCLDY    23  18  80 N13       29.85R WCI  11
PIPESTONE      MOCLDY    28  21  74 N14       29.82R WCI  17
REDWOOD FALLS  CLOUDY    27  20  75 NW10      29.81R WCI  17
WINDOM           N/A     27  16  63 NW17      29.78R WCI  14
WORTHINGTON    CLOUDY    28  23  81 NW20      29.80R WCI  15
$$

IAZ001>003-012>014-020>022-031-032-NEZ013-014-SDZ071-181300-
NORTHWEST IOWA

CITY           SKY/WX    TMP DP  RH WIND       PRES   REMARKS
CHEROKEE       CLOUDY    32  30  92 N12       29.80R WCI  23
DENISON        CLOUDY    37  36  93 N10       29.78R
ESTHERVILLE    CLOUDY    30  28  92 NW17      29.76R WCI  18
LE MARS        CLOUDY    34  30  86 N8G14     29.83R WCI  27
ORANGE CITY    CLOUDY    34  30  86 NW12      29.81R WCI  25
SHELDON        CLOUDY    30  27  86 N10       29.79R WCI  21
SIOUX CITY     CLOUDY    36  33  89 NW14      29.82R
6HR MIN TEMP:  36; 6HR MAX TEMP:  40; 6HR PCP:  0.02;

SPENCER        CLOUDY    31  26  82 N18       29.79R WCI  19
6HR MIN TEMP:  31; 6HR MAX TEMP:  38;

STORM LAKE     CLOUDY    32  30  93 N16       29.76R WCI  21
$$

ABBREVIATIONS USED IN REMARKS
   TC - TEMPERATURE IN CELSIUS
  WCI - WIND CHILL INDEX
   HX - HEAT INDEX
  VSB - VISIBILITY





USA.gov is the U.S. government's official web portal to all federal, state and local government web resources and services.